ZHONGXING-2A

Last updated on Wed Sep 17 2025 00:02:47 GMT+0000 (Coordinated Universal Time)

1 38352U 12028A 25259.64784211 -.00000312 00000+0 00000+0 0 9995 2 38352 0.7417 87.8868 0003068 138.8426 100.5805 1.00272863 48556
UTC large
Height (km)
Speed (km/s)
/
Latitude / Longitude
Inclination (degrees)
Orbital Period (minutes)
Azimuth
Elevation
Range (km)
Doppler Factor

Next 0 passes for location: London (51.5072 / 0.1276)

Sorry there are no passes over London.